Theta_e
329 331 331 331 332 333 337 337 339 338 339 343 346 347 346 359 347 340 345 347 357 360 358 358 353 350 349 345 347 348 348 344 339 335 333 338 340 339 338 336 342 346 345 344
332 332 332 332 332 332 337 338 337 338 338 340 343 341 343 353 348 342 339 338 350 357 353 360 356 352 349 347 345 344 342 337 334 332 332 336 338 338 336 335 342 337 338 340
340 339 336 336 335 337 338 338 339 343 344 347 345 343 345 345 346 350 340 352 353 351 349 357 357 354 349 347 344 342 341 340 338 339 338 337 338 338 341 339 338 342 342 342
335 335 336 333 333 337 337 339 338 338 342 348 345 339 342 340 347 342 356 352 350 349 350 354 357 353 348 345 343 342 341 340 339 338 336 335 336 338 338 339 340 342 339 339
332 333 333 334 338 337 338 343 340 340 342 343 344 339 339 340 342 338 339 333 335 348 349 353 354 351 347 345 344 342 339 336 335 334 339 340 340 339 339 340 338 337 336 335
333 335 335 340 336 335 335 349 344 346 347 348 345 349 349 343 337 335 340 341 349 348 350 351 350 347 346 346 346 344 343 344 343 342 341 340 338 337 336 335 334 332 334 333
336 340 340 337 340 338 342 349 340 339 345 343 345 342 336 343 335 336 340 350 348 348 348 350 349 348 344 340 339 338 337 338 338 337 337 336 335 335 335 334 334 333 333 333
342 341 342 339 341 349 343 341 338 337 338 340 338 333 328 339 340 342 339 333 347 347 347 348 348 341 338 338 338 336 336 336 335 335 334 333 332 331 328 329 327 328 329 329
342 343 338 334 335 332 330 331 332 331 334 335 335 332 327 322 323 325 328 329 326 315 347 342 340 338 338 336 336 335 334 332 330 330 329 329 327 326 328 330 324 320 325 329
336 335 337 333 331 329 328 328 329 331 332 335 334 332 330 327 322 322 324 326 325 318 339 339 338 337 337 337 336 335 333 332 328 327 326 327 328 323 322 318 316 313 318 322
333 334 332 332 329 329 327 329 329 330 335 333 332 331 327 325 324 323 323 326 331 339 339 338 338 337 336 336 335 332 328 327 326 327 326 324 323 321 320 318 318 316 315 316
335 330 330 329 326 327 327 327 327 330 339 336 330 325 327 330 326 329 330 333 338 337 336 336 335 335 333 330 326 326 325 323 322 326 325 324 324 321 320 319 318 317 316 316
331 328 327 328 328 327 327 327 328 332 337 331 329 327 324 323 326 325 323 327 336 335 334 331 329 327 327 326 325 325 324 321 319 321 321 321 321 321 321 319 317 316 317 316
329 328 329 328 326 326 328 328 329 332 333 333 333 333 327 321 322 323 321 323 332 331 330 328 327 326 325 325 324 321 319 318 320 322 320 320 319 319 319 320 320 319 318 318
328 326 326 326 327 327 328 329 329 334 332 325 323 331 331 328 324 326 325 326 331 329 327 326 326 326 324 324 323 322 323 320 318 318 317 318 319 319 319 318 318 318 318 318
328 327 327 327 327 328 328 329 330 332 330 329 332 333 333 331 330 332 329 330 329 329 329 325 324 324 323 323 323 322 322 321 319 319 319 319 319 318 319 318 318 317 317 318
327 328 326 326 327 329 329 329 330 332 326 327 323 334 334 334 333 331 331 330 330 327 325 324 324 323 323 322 322 322 323 322 323 322 319 319 320 320 319 319 319 319 319 318
324 325 324 326 326 327 330 329 330 331 332 326 323 333 333 330 328 328 328 327 326 326 326 326 324 323 322 322 321 320 319 318 320 322 322 321 321 321 321 321 320 320 319 318
323 323 326 326 327 327 328 328 330 330 332 332 330 331 329 328 327 326 324 324 324 325 323 323 324 323 322 322 320 318 318 318 320 320 319 319 318 318 318 317 317 318 318 317
324 322 324 325 323 326 326 329 329 329 330 330 329 330 328 328 327 325 325 325 325 324 323 322 316 320 319 321 320 317 316 319 319 319 319 317 318 318 318 316 317 317 318 317
325 325 325 326 326 324 325 326 327 328 329 328 329 329 329 326 326 325 325 325 325 323 321 322 319 320 322 320 315 318 318 318 318 318 318 317 317 317 317 317 318 316 316 316
325 324 327 326 327 326 325 325 325 326 327 326 326 326 325 325 323 322 324 323 319 319 321 320 317 319 317 316 315 319 318 318 317 318 318 318 317 317 318 319 319 317 317 317
327 326 326 326 326 325 324 324 322 324 326 325 325 325 324 324 323 324 324 323 322 317 317 320 320 319 317 315 316 318 317 317 317 318 318 317 317 317 316 317 318 318 317 316
327 326 326 324 324 325 324 321 320 324 325 324 323 323 324 324 324 324 322 322 320 314 317 318 318 317 315 315 315 317 318 318 318 318 318 319 319 318 319 318 318 318 319 317
325 325 324 323 322 322 320 321 323 323 321 322 323 321 322 322 323 322 319 316 315 316 317 317 317 317 317 316 318 318 319 319 319 318 318 318 318 318 318 318 317 318 319 317
322 322 322 320 319 318 319 320 320 321 322 323 323 322 323 320 320 320 319 319 319 319 318 319 318 317 317 317 318 318 317 318 318 318 318 318 318 318 318 319 319 318 317 317
320 321 320 318 316 316 317 318 319 319 321 321 321 319 321 319 319 317 318 318 319 319 319 320 319 319 319 318 318 318 317 317 318 318 318 318 318 318 318 318 318 318 317 315
Wind_Speed
9 11 17 11 14 10 6 6 7 5 4 4 6 10 8 11 16 20 16 15 19 13 9 11 18 22 23 24 28 31 32 28 21 18 24 22 20 9 9 11 5 7 13 14
7 10 13 18 12 11 9 8 4 4 3 2 6 9 10 8 10 8 5 6 12 14 7 12 10 17 22 23 23 29 28 25 18 15 14 17 12 8 7 7 6 3 5 8
3 8 9 6 8 5 9 5 3 1 1 1 3 6 8 3 5 10 12 14 12 9 4 11 12 11 18 22 24 25 23 16 12 10 14 17 13 10 11 8 5 7 9 7
3 6 7 7 2 4 4 3 3 5 6 6 5 3 5 7 7 9 17 17 13 10 9 5 9 17 21 22 22 24 24 19 12 12 10 11 12 10 7 6 5 9 9 9
3 8 7 8 5 6 5 10 16 8 4 2 8 6 8 6 8 6 11 13 12 20 17 14 12 19 23 21 22 20 17 16 13 13 12 12 11 10 10 9 8 7 6 7
3 5 7 3 9 11 9 5 15 21 18 11 9 6 7 9 5 9 14 18 6 9 19 17 22 23 19 19 20 20 21 15 14 13 13 12 11 8 9 8 7 6 6 7
4 0 3 6 10 6 3 3 11 12 6 4 2 1 10 12 8 11 22 7 10 15 18 20 29 26 21 22 23 23 22 22 19 16 13 12 10 9 9 8 7 6 4 3
3 5 5 10 8 6 2 3 4 6 4 5 5 8 11 15 10 12 13 39 2 4 13 19 22 29 25 24 26 26 21 19 16 14 12 9 8 7 5 6 6 5 6 7
2 3 7 11 10 6 5 5 6 7 6 5 6 7 6 5 6 3 4 5 38 57 20 13 26 30 26 30 30 26 21 16 14 12 10 8 9 6 3 6 11 19 16 13
4 6 6 10 8 8 7 8 7 5 8 3 2 5 4 5 1 2 6 18 31 38 23 21 26 27 31 30 28 25 23 20 13 13 10 7 3 10 13 12 12 9 11 17
2 6 4 8 6 5 8 8 7 8 2 3 3 5 3 4 6 6 10 17 16 28 20 22 24 27 25 23 22 21 18 18 14 14 12 12 10 7 8 9 9 9 9 9
2 5 4 6 9 9 8 8 10 6 1 4 2 5 5 4 2 11 8 24 16 12 22 23 24 26 26 22 18 16 13 14 14 10 14 13 9 10 6 4 4 6 8 8
4 6 5 6 6 8 8 10 13 8 7 6 5 6 7 2 6 15 26 36 18 14 25 20 19 21 20 20 15 15 16 15 14 14 9 10 9 11 5 4 5 5 5 6
7 8 7 7 7 8 9 12 15 9 16 9 10 11 4 4 6 14 21 16 27 20 21 21 19 15 15 16 15 16 12 9 9 7 7 12 12 10 9 11 9 6 4 8
6 5 5 7 9 10 14 15 12 7 6 3 5 5 3 4 8 4 12 19 24 23 19 16 16 16 14 13 12 11 9 6 7 5 6 6 5 6 3 2 4 5 5 5
6 7 7 8 8 7 8 11 10 10 6 10 12 3 6 10 6 4 14 16 18 13 15 21 18 15 13 10 9 7 6 3 2 2 1 4 3 2 2 4 3 5 9 9
5 5 6 7 7 8 8 10 12 10 5 7 21 7 5 11 8 10 9 9 13 18 19 19 18 13 11 7 6 3 7 10 14 12 11 10 10 8 7 5 6 5 8 9
7 6 6 5 7 7 7 8 13 16 9 21 14 6 7 8 5 11 15 16 15 15 13 12 13 11 7 4 3 5 11 12 7 10 13 9 3 1 1 1 5 7 8 10
8 8 7 6 9 7 6 8 13 18 16 7 15 7 9 8 8 15 16 16 12 13 11 10 13 9 5 3 2 4 7 12 6 6 5 4 8 7 1 4 9 9 7 6
8 11 16 5 7 10 9 14 16 17 2 15 16 13 13 13 13 12 9 7 7 10 9 5 4 5 4 4 3 4 8 7 6 5 1 3 6 5 2 5 6 8 7 7
7 7 6 9 8 10 10 13 15 13 6 10 5 8 11 13 12 10 9 3 3 8 4 7 4 4 6 8 4 2 5 7 6 8 5 4 4 4 5 6 8 5 5 8
7 6 8 10 8 9 10 9 10 11 5 11 9 5 14 12 6 9 10 5 6 6 6 9 7 13 12 3 1 2 2 2 4 7 6 4 3 4 7 9 10 8 7 7
9 9 9 8 7 8 7 6 7 11 6 16 16 16 14 13 10 6 4 13 11 6 4 5 14 12 8 4 5 7 7 7 6 7 8 6 6 9 11 9 8 7 9 8
9 9 5 5 6 7 3 4 7 6 8 14 15 13 11 10 11 15 11 19 14 8 6 9 8 6 3 4 9 13 12 10 8 9 11 11 12 13 13 13 15 16 13 12
7 6 5 5 6 3 4 2 5 9 8 10 7 5 12 8 15 17 14 12 11 6 10 14 10 11 11 10 12 16 17 18 15 12 13 13 15 11 16 18 16 12 11 11
7 9 9 6 4 3 7 11 9 7 7 1 12 14 12 10 13 14 17 15 12 8 7 10 12 13 15 14 15 10 8 5 6 7 13 15 14 11 15 15 9 6 6 8
7 9 11 3 4 5 3 6 7 5 9 12 13 8 2 5 9 6 11 11 7 9 11 7 11 12 15 15 6 8 10 13 12 10 10 13 10 5 4 5 3 6 7 11
Wind_Direction
289 294 298 293 297 309 271 220 143 293 33 4 30 61 40 58 37 34 31 38 7 359 342 51 80 86 93 99 112 127 126 122 120 117 103 115 108 68 36 14 30 24 54 64
262 267 277 290 302 311 347 357 33 53 327 190 -0 86 48 43 102 87 98 353 359 342 319 23 33 102 108 110 113 118 118 119 115 117 100 81 74 86 173 204 178 157 88 35
272 329 339 350 337 31 115 96 99 160 201 86 28 65 101 23 344 165 154 151 198 238 274 44 78 106 114 116 117 117 126 129 123 99 83 99 109 134 162 175 166 123 95 131
256 336 300 256 121 65 7 77 229 206 155 138 157 219 203 168 175 177 165 180 187 185 147 127 141 129 123 123 119 121 124 130 135 115 116 121 130 144 144 148 131 115 121 137
222 251 264 290 27 27 44 41 21 49 58 152 180 209 253 215 211 220 211 197 195 161 137 150 150 143 138 138 130 128 123 121 120 126 128 128 126 131 130 128 123 111 108 90
242 237 241 33 355 350 331 54 9 38 22 348 357 351 322 292 229 209 211 223 191 129 129 160 155 151 144 137 120 112 120 129 143 137 127 130 130 130 120 115 108 91 82 69
214 169 78 346 16 335 64 307 335 7 91 42 29 119 300 298 278 17 357 329 160 161 153 164 163 153 130 118 118 124 118 119 120 118 114 111 111 96 88 80 74 61 43 47
28 47 283 350 44 63 238 271 279 341 4 2 344 13 7 357 44 6 15 346 210 204 169 174 168 132 124 123 123 122 122 116 118 123 117 114 99 86 81 67 72 44 5 347
47 169 82 57 82 46 17 339 326 332 344 64 8 20 356 58 2 46 68 37 314 308 199 164 134 131 130 131 128 128 123 113 106 108 109 116 101 93 67 54 48 60 51 38
75 31 70 72 51 27 337 296 285 326 345 72 323 71 357 338 346 86 166 171 237 255 132 135 129 132 131 131 132 130 130 129 128 123 123 126 108 98 81 65 45 45 57 74
122 32 36 51 55 358 319 331 347 331 14 12 348 72 40 330 321 275 265 280 343 155 157 139 134 124 120 118 129 132 132 131 143 149 127 113 120 115 112 98 74 74 66 69
74 36 76 343 338 344 358 335 324 313 177 58 25 48 35 352 313 358 341 318 154 137 108 110 115 118 124 128 123 121 132 133 121 161 139 141 125 137 143 154 153 127 110 113
41 22 7 321 357 353 336 328 324 359 72 55 43 67 102 100 50 48 46 23 87 118 98 102 108 111 109 104 111 113 112 106 100 109 121 121 99 99 91 204 192 169 162 163
32 22 354 349 324 331 342 339 341 18 84 92 66 74 138 3 29 93 112 107 73 76 92 105 107 105 109 109 98 93 100 107 80 83 96 108 93 91 67 77 101 120 194 221
15 337 339 359 7 7 357 350 355 63 108 81 66 162 189 207 297 30 121 110 128 136 135 131 116 111 104 104 107 102 82 118 75 46 48 73 109 139 159 351 19 26 11 299
2 357 356 358 338 333 348 342 360 22 48 19 310 237 208 157 183 144 162 151 145 151 144 121 111 111 109 98 88 71 68 89 188 214 220 196 200 202 217 214 256 309 332 347
339 346 346 335 338 14 357 355 355 16 122 150 256 170 137 126 138 127 140 152 129 120 122 126 124 121 112 107 96 20 331 299 262 254 259 271 281 256 207 236 257 278 297 290
351 342 337 19 23 8 9 354 358 355 323 207 247 97 150 120 120 124 113 111 100 102 104 131 135 125 138 108 42 351 347 0 9 265 268 277 335 13 203 324 333 294 268 280
328 345 355 38 22 353 6 3 355 344 334 166 102 180 129 111 107 111 114 112 119 112 112 108 145 142 121 111 142 327 333 334 80 82 64 34 344 338 172 313 302 292 278 277
348 334 337 49 358 19 16 19 3 345 222 137 161 157 149 159 137 128 124 101 127 142 140 139 147 169 181 155 220 295 320 343 354 336 337 17 355 330 268 327 305 290 270 248
341 2 25 2 22 17 31 31 8 348 179 154 150 165 140 119 104 105 104 59 144 149 166 200 191 260 192 171 264 114 48 52 48 -0 17 357 21 41 306 291 273 251 268 278
323 326 12 4 9 2 4 28 359 337 193 166 129 160 134 120 137 128 154 181 176 178 201 218 191 170 163 180 255 207 288 326 339 16 17 286 277 282 281 281 284 238 261 276
352 4 350 4 355 331 322 52 351 320 245 172 177 184 172 166 179 171 217 207 215 216 213 210 199 194 221 265 225 256 278 277 296 306 314 306 286 292 291 304 284 263 262 240
359 356 27 13 359 8 74 25 335 310 183 160 157 168 167 169 214 218 190 172 190 200 171 208 203 222 259 274 254 249 253 259 257 263 272 282 279 287 287 291 298 290 286 265
16 9 4 38 55 49 26 6 144 126 113 110 119 162 201 237 215 167 174 189 198 198 218 229 229 235 243 253 265 283 261 247 246 256 266 270 275 285 293 277 278 292 291 285
78 80 72 68 78 79 69 73 64 83 80 167 173 205 241 190 147 177 197 206 217 228 236 237 232 240 252 265 277 274 23 279 330 277 258 278 266 273 309 279 263 283 291 275
152 131 126 85 54 114 59 37 56 278 292 304 301 313 312 196 221 213 216 226 215 257 272 262 232 240 252 254 250 268 301 315 304 271 268 285 281 306 357 288 291 321 292 281